When you browse on this site, cookies collect data to enhance your experience and personalize the content and advertising you see.
Visit our Privacy Policy to learn more. By continuing to use the site, you agree to this use of cookies and data.
  • In Schweiz
  • Länderverzeichnis
  • Für 7 Tage
  • Wassertemperatur
  • Wetterkarte
  • Widgets
  • user-avatar
    Anmelden

    Stündliche Wetter Jewłach

    Heute, 2 Juni, Dienstag

    Zeit Temperatur Niederschläge Wind Luftdruck Luftfeuchtigkeit
    00:00 +22°C° 0 mm 3 m/S 755 mmHg 52%
    01:00 +23°C° 0 mm 2 m/S 755 mmHg 53%
    02:00 +21°C° 0 mm 2 m/S 755 mmHg 55%
    03:00 +21°C° 0 mm 1 m/S 755 mmHg 57%
    04:00 +22°C° 0 mm 1 m/S 755 mmHg 55%
    05:00 +23°C° 0 mm 1 m/S 755 mmHg 53%
    06:00 +22°C° 0 mm 0 m/S 755 mmHg 51%
    07:00 +26°C° 0 mm 1 m/S 755 mmHg 46%
    08:00 +28°C° 0 mm 1 m/S 754 mmHg 41%
    09:00 +30°C° 0 mm 1 m/S 754 mmHg 35%
    10:00 +32°C° 0 mm 1 m/S 754 mmHg 32%
    11:00 +34°C° 0 mm 1 m/S 753 mmHg 29%
    12:00 +35°C° 0 mm 1 m/S 753 mmHg 26%
    13:00 +37°C° 0 mm 2 m/S 753 mmHg 25%
    14:00 +38°C° 0 mm 2 m/S 752 mmHg 23%
    15:00 +39°C° 0 mm 3 m/S 752 mmHg 21%
    16:00 +36°C° 0.1 mm 5 m/S 752 mmHg 28%
    17:00 +33°C° 0.1 mm 8 m/S 752 mmHg 36%
    18:00 +29°C° 0.1 mm 11 m/S 753 mmHg 44%
    19:00 +28°C° 0.1 mm 8 m/S 753 mmHg 47%
    20:00 +27°C° 0.1 mm 6 m/S 753 mmHg 50%
    21:00 +26°C° 0.1 mm 3 m/S 753 mmHg 54%
    22:00 +26°C° 0 mm 4 m/S 753 mmHg 56%
    23:00 +25°C° 0 mm 4 m/S 753 mmHg 58%

    Morgen, 3 Juni, Mittwoch

    Zeit Temperatur Niederschläge Wind Luftdruck Luftfeuchtigkeit
    00:00 +25°C° 0 mm 4 m/S 752 mmHg 60%
    01:00 +23°C° 0.1 mm 5 m/S 752 mmHg 63%
    02:00 +23°C° 0.1 mm 5 m/S 752 mmHg 65%
    03:00 +22°C° 0.1 mm 6 m/S 752 mmHg 68%
    04:00 +22°C° 0 mm 6 m/S 752 mmHg 65%
    05:00 +23°C° 0 mm 6 m/S 752 mmHg 62%
    06:00 +24°C° 0 mm 6 m/S 752 mmHg 59%
    07:00 +27°C° 0 mm 7 m/S 752 mmHg 52%
    08:00 +29°C° 0 mm 7 m/S 752 mmHg 45%
    09:00 +32°C° 0 mm 7 m/S 751 mmHg 37%
    10:00 +34°C° 0 mm 7 m/S 751 mmHg 32%
    11:00 +36°C° 0 mm 7 m/S 751 mmHg 28%
    12:00 +39°C° 0 mm 7 m/S 751 mmHg 23%
    13:00 +40°C° 0 mm 7 m/S 751 mmHg 20%
    14:00 +41°C° 0 mm 7 m/S 751 mmHg 18%
    15:00 +41°C° 0 mm 7 m/S 751 mmHg 16%
    16:00 +39°C° 0 mm 7 m/S 752 mmHg 20%
    17:00 +36°C° 0 mm 7 m/S 752 mmHg 25%
    18:00 +34°C° 0 mm 8 m/S 752 mmHg 29%
    19:00 +33°C° 0.1 mm 6 m/S 753 mmHg 34%
    20:00 +30°C° 0.1 mm 5 m/S 753 mmHg 38%
    21:00 +28°C° 0.1 mm 3 m/S 754 mmHg 42%
    22:00 +27°C° 0 mm 4 m/S 754 mmHg 46%
    23:00 +26°C° 0 mm 5 m/S 755 mmHg 50%

    übermorgen, 4 Juni, Donnerstag

    Zeit Temperatur Niederschläge Wind Luftdruck Luftfeuchtigkeit
    00:00 +24°C° 0 mm 6 m/S 755 mmHg 54%
    01:00 +23°C° 0 mm 6 m/S 755 mmHg 57%
    02:00 +23°C° 0 mm 6 m/S 756 mmHg 60%
    03:00 +22°C° 0 mm 6 m/S 756 mmHg 64%
    04:00 +22°C° 0 mm 6 m/S 756 mmHg 62%
    05:00 +23°C° 0 mm 5 m/S 757 mmHg 60%
    06:00 +23°C° 0 mm 5 m/S 757 mmHg 57%
    07:00 +26°C° 0 mm 5 m/S 757 mmHg 51%
    08:00 +28°C° 0 mm 4 m/S 757 mmHg 45%
    09:00 +30°C° 0 mm 3 m/S 757 mmHg 38%
    10:00 +33°C° 0 mm 3 m/S 757 mmHg 35%
    11:00 +34°C° 0 mm 2 m/S 756 mmHg 31%
    12:00 +35°C° 0 mm 1 m/S 756 mmHg 28%
    13:00 +36°C° 0 mm 2 m/S 756 mmHg 27%
    14:00 +37°C° 0 mm 3 m/S 756 mmHg 25%
    15:00 +38°C° 0 mm 4 m/S 756 mmHg 24%
    16:00 +37°C° 0 mm 5 m/S 756 mmHg 27%
    17:00 +36°C° 0 mm 6 m/S 756 mmHg 31%
    18:00 +35°C° 0 mm 7 m/S 756 mmHg 35%
    19:00 +33°C° 0 mm 7 m/S 757 mmHg 41%
    20:00 +30°C° 0 mm 6 m/S 757 mmHg 48%
    21:00 +27°C° 0 mm 6 m/S 758 mmHg 54%
    22:00 +26°C° 0 mm 5 m/S 758 mmHg 58%
    23:00 +25°C° 0 mm 4 m/S 758 mmHg 61%

    5 Juni, Freitag

    Zeit Temperatur Niederschläge Wind Luftdruck Luftfeuchtigkeit
    00:00 +24°C° 0 mm 3 m/S 758 mmHg 65%
    01:00 +24°C° 0 mm 2 m/S 758 mmHg 66%
    02:00 +23°C° 0 mm 2 m/S 758 mmHg 67%
    03:00 +23°C° 0 mm 1 m/S 758 mmHg 69%
    04:00 +24°C° 0 mm 3 m/S 758 mmHg 66%
    05:00 +23°C° 0 mm 5 m/S 759 mmHg 63%
    06:00 +24°C° 0 mm 6 m/S 759 mmHg 60%
    07:00 +27°C° 0 mm 7 m/S 759 mmHg 55%
    08:00 +29°C° 0 mm 7 m/S 759 mmHg 49%
    09:00 +30°C° 0 mm 7 m/S 759 mmHg 43%
    10:00 +33°C° 0 mm 6 m/S 758 mmHg 39%
    11:00 +35°C° 0 mm 5 m/S 758 mmHg 34%
    12:00 +36°C° 0 mm 4 m/S 758 mmHg 30%
    13:00 +37°C° 0 mm 4 m/S 758 mmHg 26%
    14:00 +38°C° 0 mm 3 m/S 758 mmHg 23%
    15:00 +39°C° 0 mm 3 m/S 758 mmHg 19%
    16:00 +38°C° 0 mm 3 m/S 758 mmHg 20%
    17:00 +38°C° 0 mm 2 m/S 758 mmHg 21%
    18:00 +37°C° 0 mm 2 m/S 758 mmHg 22%
    19:00 +34°C° 0 mm 3 m/S 759 mmHg 30%
    20:00 +30°C° 0 mm 4 m/S 760 mmHg 38%
    21:00 +27°C° 0 mm 5 m/S 761 mmHg 46%
    22:00 +26°C° 0 mm 4 m/S 761 mmHg 48%
    23:00 +25°C° 0 mm 3 m/S 761 mmHg 50%

    6 Juni, Samstag

    Zeit Temperatur Niederschläge Wind Luftdruck Luftfeuchtigkeit
    00:00 +25°C° 0 mm 2 m/S 761 mmHg 52%
    01:00 +24°C° 0 mm 2 m/S 761 mmHg 53%
    02:00 +24°C° 0 mm 2 m/S 762 mmHg 55%
    03:00 +24°C° 0 mm 2 m/S 762 mmHg 56%
    04:00 +24°C° 0.6 mm 2 m/S 762 mmHg 58%
    05:00 +24°C° 0.6 mm 2 m/S 762 mmHg 59%
    06:00 +24°C° 0.6 mm 2 m/S 762 mmHg 61%
    07:00 +25°C° 1.4 mm 2 m/S 762 mmHg 60%
    08:00 +25°C° 1.4 mm 2 m/S 762 mmHg 59%
    09:00 +26°C° 1.4 mm 2 m/S 762 mmHg 57%
    10:00 +28°C° 0.5 mm 2 m/S 761 mmHg 53%
    11:00 +29°C° 0.5 mm 3 m/S 761 mmHg 48%
    12:00 +31°C° 0.5 mm 3 m/S 761 mmHg 43%
    13:00 +33°C° 0 mm 3 m/S 760 mmHg 41%
    14:00 +33°C° 0 mm 3 m/S 760 mmHg 38%
    15:00 +34°C° 0 mm 3 m/S 759 mmHg 35%
    16:00 +34°C° 0 mm 3 m/S 759 mmHg 36%
    17:00 +33°C° 0 mm 3 m/S 760 mmHg 37%
    18:00 +33°C° 0 mm 3 m/S 760 mmHg 38%
    19:00 +31°C° 0.1 mm 3 m/S 760 mmHg 42%
    20:00 +29°C° 0.1 mm 2 m/S 760 mmHg 46%
    21:00 +28°C° 0.1 mm 2 m/S 761 mmHg 51%
    22:00 +27°C° 0.3 mm 2 m/S 761 mmHg 56%
    23:00 +26°C° 0.3 mm 3 m/S 761 mmHg 62%

    7 Juni, Sonntag

    Zeit Temperatur Niederschläge Wind Luftdruck Luftfeuchtigkeit
    00:00 +25°C° 0.3 mm 3 m/S 761 mmHg 67%
    01:00 +24°C° 0 mm 2 m/S 761 mmHg 68%
    02:00 +24°C° 0 mm 2 m/S 761 mmHg 69%
    03:00 +23°C° 0 mm 2 m/S 761 mmHg 69%
    04:00 +24°C° 0 mm 1 m/S 761 mmHg 66%
    05:00 +24°C° 0 mm 1 m/S 761 mmHg 64%
    06:00 +25°C° 0 mm 1 m/S 761 mmHg 61%
    07:00 +26°C° 0 mm 1 m/S 761 mmHg 55%
    08:00 +28°C° 0 mm 1 m/S 760 mmHg 49%
    09:00 +30°C° 0 mm 1 m/S 760 mmHg 43%
    10:00 +31°C° 0 mm 1 m/S 760 mmHg 40%
    11:00 +33°C° 0 mm 1 m/S 760 mmHg 36%
    12:00 +34°C° 0 mm 1 m/S 760 mmHg 33%
    13:00 +35°C° 0 mm 1 m/S 759 mmHg 31%
    14:00 +35°C° 0 mm 1 m/S 759 mmHg 30%
    15:00 +37°C° 0 mm 2 m/S 759 mmHg 28%
    16:00 +37°C° 0 mm 2 m/S 759 mmHg 28%
    17:00 +36°C° 0 mm 2 m/S 759 mmHg 28%
    18:00 +36°C° 0 mm 2 m/S 759 mmHg 28%
    19:00 +34°C° 0 mm 2 m/S 759 mmHg 32%
    20:00 +32°C° 0 mm 2 m/S 760 mmHg 35%
    21:00 +30°C° 0 mm 2 m/S 760 mmHg 38%
    22:00 +29°C° 0 mm 2 m/S 760 mmHg 39%
    23:00 +28°C° 0 mm 3 m/S 760 mmHg 41%
    Mehr zeigen